Powrót do katalogu

COSMOS 970 DEB

AktywnyLEO
NORAD 10575·DEBRIS·🇷🇺 Russia

Wystrzelony Dec 21, 1977 z Baikonur Cosmodrome

Loading…

Następne Przeloty (najbliższe 24 godziny)

TLE

ŚwieżeSource: Space-Track

Epoka: Sep 14, 2026, 12:52 UTC

1 10575U 77121S   26257.53640729  .00000036  00000-0  14247-3 0  9994
2 10575  65.8771  78.1890 0108317  78.1569 316.1343 13.61394389417485

Śledź COSMOS 970 DEB w czasie rzeczywistym z AllMySat

Download on the App Store